[[{"header":{"parameterUnit":"m.s-1","parameterCategory":1,"la1":30.2991,"la2":30.254,"lo1":-89.0895,"lo2":-89.0444,"dy":0.0017,"dx":0.0017,"nx":28,"ny":28,"refTime":"2023-07-22T03:00:00:Z","depth":0,"parameterNumber":2,"parameterNumberName":"U-component_of_WINDS"},"data":[0,0,0,0,0,0,0,0,0,0,0,0,0,0,0,0,0,0,0,0,0,0,0,0,0,0,0,0,0,0,0,0,0,0,0,0,0,0,0,0,0,0,0,0,0,0,0,0,0,0,0,0,0,0,0,0,0,0,2.7551,2.7553,0,2.7757,2.776,2.7762,2.7794,2.7793,2.7791,2.7789,2.7992,2.7999,2.8006,0,0,0,0,0,0,0,0,0,0,0,0,0,2.7173,2.718,2.755,2.7553,2.7556,2.7757,2.776,2.7762,2.7795,2.7793,2.779,2.7788,2.799,2.7998,2.8007,0,0,0,0,0,0,0,0,0,0,0,0,0,2.7354,2.7182,2.755,2.7596,2.7602,2.7756,2.776,2.7763,2.7795,2.7793,2.779,2.7787,2.7987,2.7997,2.8008,2.8127,0,0,2.804,2.8045,0,0,0,0,0,0,0,0,2.7343,2.7368,2.7587,2.7593,2.7601,2.7748,2.7701,2.7885,2.7796,2.7722,2.7789,2.7786,2.7912,2.7929,2.7973,2.8137,2.8146,2.8041,2.8048,2.8052,2.8055,0,0,0,0,0,0,0,2.7331,2.7359,2.7632,2.759,2.7598,2.7603,2.7626,2.7736,2.7829,2.7728,2.7731,2.7755,2.7916,2.7963,2.7978,2.8149,2.8041,2.805,2.8057,2.8061,2.8417,2.842,0,0,0,0,0,0,2.7311,2.7348,2.7625,2.7638,2.7463,2.7612,2.7638,2.7703,2.7828,2.7845,2.7757,2.7756,2.7946,2.7966,2.7986,2.8133,2.8052,2.8062,2.8068,2.8414,2.8418,2.8421,0,0,0,0,0,0,2.7303,2.7336,2.7617,2.7494,2.753,2.7622,2.7695,2.7708,2.7756,2.7851,2.7867,2.779,2.7945,2.7971,2.8092,2.814,2.8067,2.8077,2.841,2.8415,2.8419,2.8428,0,0,0,0,0,0,2.7292,2.7333,2.7382,2.7495,2.7537,2.7723,2.7698,2.7714,2.7775,2.7776,2.7885,2.7901,2.7945,2.8076,2.8102,2.8153,2.8085,2.8406,2.8413,2.8418,2.8424,2.8432,2.8439,0,0,0,0,0,2.7279,2.7375,2.7384,2.7418,2.7601,2.7726,2.7749,2.7801,2.7779,2.7828,2.7888,2.7897,2.813,2.8088,2.8118,2.8173,2.8404,2.8411,2.8418,2.842,2.843,2.8439,0,0,0,0,0,0,2.7263,2.7391,2.7403,2.7539,2.7622,2.7731,2.7794,2.7811,2.7899,2.7895,2.7952,2.7977,2.8094,2.8146,2.8096,2.8293,2.8265,2.8278,2.8256,2.8267,2.8275,2.826,2.8094,0,0,0,0,0,2.7275,2.737,2.7475,2.7585,2.7626,2.7703,2.7759,2.7792,2.7878,2.7913,2.7982,2.8063,2.8154,2.8213,2.8303,2.8431,2.8453,2.8483,2.849,2.8497,2.8507,2.8576,2.859,2.8444,2.8444,2.8444,0,0,2.7302,2.7383,2.7439,2.7584,2.7652,2.7744,2.7732,2.7831,2.79,2.7927,2.8046,2.8099,2.8193,2.8318,2.8376,2.8364,2.8552,2.8505,2.851,2.8517,2.8585,2.8598,2.861,2.8449,2.8448,2.8447,0,0,2.7398,2.747,2.7569,2.7637,2.7741,2.7791,2.7814,2.7921,2.7958,2.8079,2.8101,2.8181,2.8338,2.8403,2.8457,2.8574,2.8585,2.8601,2.8643,2.8709,2.872,2.8731,2.8771,2.8785,2.8612,2.8612,2.8612,0,2.7417,2.7562,2.7617,2.7716,2.7777,2.7807,2.7905,2.7968,2.8094,2.8134,2.8119,2.8315,2.8381,2.852,2.8548,2.8591,2.8617,2.859,2.8715,2.8726,2.8736,2.8775,2.879,2.8613,2.8613,2.8613,2.8613,0,2.7579,2.7679,2.7745,2.7869,2.7937,2.8035,2.8101,2.8163,2.8188,2.8238,2.8359,2.8438,2.8543,2.8578,2.8603,2.872,2.8709,2.8704,2.8676,2.8751,2.8788,2.8804,2.8615,2.8614,2.8614,2.8614,0,0,2.7674,2.7825,2.7849,2.7904,2.8019,2.8095,2.8191,2.8296,2.8347,2.8432,2.8513,2.8643,2.8639,2.8699,2.8731,2.879,2.8875,2.8777,2.878,2.8792,2.9006,2.9009,2.9026,2.8883,2.8886,2.8888,2.8998,0,2.7783,2.7961,2.8012,2.816,2.825,2.8279,2.8362,2.8439,2.8488,2.8569,2.8621,2.8712,2.87,2.8737,2.8795,2.8852,2.8919,2.8845,2.8956,2.8959,2.8932,2.9046,2.905,2.915,2.9013,2.9015,2.9017,0,2.7936,2.8025,2.8183,2.8284,2.8324,2.8399,2.8498,2.8576,2.8662,2.8692,2.8759,2.8786,2.8883,2.885,2.8984,2.8933,2.898,2.9014,2.9019,2.9032,2.8993,2.906,2.9183,2.9198,2.9041,2.9039,2.9037,0,2.7987,2.8147,2.8262,2.8308,2.8429,2.8481,2.8532,2.8617,2.8675,2.876,2.8798,2.8892,2.8943,2.9014,2.9063,2.9034,2.9192,2.9163,2.9218,2.9216,2.925,2.9248,2.9382,2.9281,2.9281,2.9281,2.928,0,2.8105,2.82,2.8287,2.8357,2.8463,2.8518,2.862,2.8672,2.8746,2.8825,2.8853,2.8925,2.8986,2.9066,2.9104,2.9208,2.9231,2.9256,2.9265,2.9254,2.9251,2.9286,2.928,2.9285,2.9284,2.9283,2.9282,0,2.8181,2.8244,2.8371,2.8474,2.8502,2.8575,2.8662,2.8729,2.8778,2.8876,2.8902,2.8977,2.9072,2.9128,2.9246,2.9272,2.9387,2.9393,2.9358,2.9363,2.9414,2.9408,2.9576,2.96,2.9483,2.9484,2.9485,0,2.8252,2.8327,2.8438,2.8494,2.8547,2.8636,2.8696,2.8751,2.8812,2.8914,2.8968,2.9065,2.9145,2.9294,2.9357,2.9447,2.9455,2.9508,2.9469,2.9454,2.9455,2.945,2.9456,2.9514,2.9515,2.9516,2.9517,0,2.8371,2.8398,2.8485,2.8583,2.8654,2.8733,2.8811,2.8854,2.8921,2.8987,2.9085,2.9147,2.9268,2.9363,2.9458,2.9507,2.9522,2.9528,2.9546,2.9535,2.9511,2.9524,2.9376,2.9524,2.9524,2.9523,2.9523,2.9522,2.8447,2.8514,2.8602,2.8697,2.8761,2.8833,2.8901,2.8957,2.9041,2.9146,2.9171,2.9274,2.9354,2.9483,2.9535,2.9613,2.9604,2.963,2.9636,2.9641,2.9642,2.9499,2.963,2.963,2.963,2.963,2.963,0,2.8567,2.8625,2.8712,2.882,2.8894,2.8903,2.8989,2.9049,2.914,2.9214,2.9293,2.9403,2.9494,2.9563,2.9656,2.9705,2.9713,2.9727,2.9724,2.9734,2.9645,2.9621,2.9718,2.9718,2.9718,2.9718,2.9718,2.9718,2.8638,2.875,2.8786,2.8929,2.8985,2.9087,2.9135,2.9199,2.9259,2.9382,2.9458,2.9503,2.9575,2.9672,2.9754,2.9772,2.9804,2.9816,2.9835,2.975,2.9741,2.9732,2.9709,2.9823,2.9823,2.9917,2.9918,2.9918]},{"header":{"parameterUnit":"m.s-1","parameterCategory":1,"la1":30.2991,"la2":30.254,"lo1":-89.0895,"lo2":-89.0444,"dy":0.0017,"dx":0.0017,"nx":28,"ny":28,"refTime":"2023-07-22T03:00:00:Z","depth":0,"parameterNumber":3,"parameterNumberName":"V-component_of_WINDS"},"data":[0,0,0,0,0,0,0,0,0,0,0,0,0,0,0,0,0,0,0,0,0,0,0,0,0,0,0,0,0,0,0,0,0,0,0,0,0,0,0,0,0,0,0,0,0,0,0,0,0,0,0,0,0,0,0,0,0,0,5.8495,5.8497,0,5.8774,5.8778,5.8781,5.8698,5.8692,5.8686,5.8681,5.8965,5.8978,5.8991,0,0,0,0,0,0,0,0,0,0,0,0,0,5.788,5.7892,5.8494,5.8498,5.8501,5.8774,5.8778,5.8782,5.8699,5.8692,5.8685,5.8678,5.8961,5.8976,5.8992,0,0,0,0,0,0,0,0,0,0,0,0,0,5.8152,5.7896,5.8494,5.8493,5.8496,5.8773,5.8778,5.8783,5.8701,5.8692,5.8683,5.8675,5.8956,5.8975,5.8994,5.9288,0,0,5.9054,5.9062,0,0,0,0,0,0,0,0,5.8137,5.8175,5.849,5.8494,5.8497,5.8692,5.8665,5.8952,5.8703,5.8623,5.8681,5.8671,5.8881,5.8906,5.8978,5.9302,5.9314,5.9055,5.9067,5.9075,5.9081,0,0,0,0,0,0,0,5.8118,5.8162,5.8605,5.8494,5.8499,5.8476,5.8505,5.8719,5.8797,5.8629,5.8624,5.8658,5.8882,5.8959,5.8984,5.9318,5.9055,5.9072,5.9084,5.9092,5.989,5.9899,0,0,0,0,0,0,5.8098,5.8147,5.8596,5.8613,5.8292,5.8494,5.8527,5.8638,5.8795,5.881,5.8665,5.8653,5.893,5.8961,5.8994,5.9346,5.9075,5.9094,5.9105,5.9881,5.9892,5.9902,0,0,0,0,0,0,5.8085,5.8139,5.8585,5.8379,5.8434,5.8514,5.864,5.8649,5.8726,5.8822,5.8835,5.8731,5.8925,5.8966,5.9214,5.9354,5.9102,5.912,5.9869,5.9884,5.9897,6.0054,0,0,0,0,0,0,5.8068,5.8134,5.825,5.8382,5.8445,5.8804,5.8649,5.866,5.876,5.8747,5.8887,5.8902,5.8921,5.9186,5.9234,5.9377,5.9135,5.9857,5.9876,5.9893,6.0037,6.0072,6.0102,0,0,0,0,0,5.8046,5.8284,5.8256,5.8311,5.8591,5.8812,5.8848,5.8866,5.8772,5.8887,5.8947,5.8898,5.933,5.9212,5.9265,5.9416,5.9848,5.9871,5.9891,6.0022,6.0065,6.0101,0,0,0,0,0,0,5.8167,5.8301,5.8272,5.856,5.8675,5.8798,5.8944,5.8912,5.9056,5.9038,5.9052,5.9084,5.9338,5.9401,5.9267,5.9705,5.9575,5.9608,5.9656,5.9698,5.973,5.971,5.9151,0,0,0,0,0,5.8227,5.8396,5.8504,5.8747,5.8806,5.8865,5.8962,5.8965,5.9085,5.9133,5.9212,5.9329,5.949,5.9597,5.9751,6.0043,6.0071,6.0172,6.0205,6.0231,6.0261,6.0415,6.0461,5.9973,5.9973,5.9972,0,0,5.8353,5.8447,5.8554,5.8774,5.8863,5.9036,5.8907,5.9097,5.9225,5.9162,5.9401,5.9462,5.9592,5.9862,5.9985,5.9923,6.04,6.0258,6.0279,6.0294,6.0442,6.0488,6.0529,5.9987,5.9985,5.9982,0,0,5.8672,5.8761,5.8972,5.9062,5.9199,5.9235,5.9285,5.9411,5.9449,5.9689,5.9644,5.9793,6.0073,6.0167,6.0251,6.0595,6.0554,6.0644,6.0816,6.0967,6.1005,6.1039,6.1161,6.1204,6.0672,6.0673,6.0673,0,5.8812,5.9073,5.9084,5.9277,5.9372,5.9321,5.9532,5.9619,5.9799,5.9865,5.9792,6.0137,6.0222,6.0511,6.0594,6.0664,6.072,6.0631,6.0999,6.1033,6.1065,6.1181,6.1227,6.0683,6.0682,6.0681,6.068,0,5.9236,5.9417,5.957,5.9743,5.9856,6.0057,6.0095,6.0207,6.0198,6.024,6.0481,6.058,6.0751,6.0819,6.0813,6.1106,6.1063,6.0994,6.0864,6.1122,6.123,6.1275,6.0698,6.0694,6.0691,6.0688,0,0,5.9647,5.9817,5.9874,5.9949,6.0092,6.0231,6.0425,6.0592,6.0687,6.0809,6.0972,6.1206,6.1141,6.1236,6.1239,6.1371,6.1634,6.1285,6.1288,6.1347,6.196,6.2012,6.2063,6.1605,6.1614,6.1621,6.1948,0,5.9977,6.0323,6.0334,6.0649,6.0813,6.0762,6.0931,6.1035,6.1078,6.1221,6.1267,6.1433,6.1336,6.1392,6.152,6.1575,6.1757,6.1551,6.1756,6.1763,6.1727,6.2121,6.2178,6.2483,6.1991,6.1999,6.2004,0,6.0411,6.0546,6.0877,6.0989,6.1059,6.1212,6.1362,6.15,6.1614,6.1635,6.1738,6.1719,6.1915,6.1775,6.2043,6.1902,6.1985,6.2023,6.2035,6.2057,6.1901,6.2154,6.2581,6.2627,6.2071,6.2066,6.2061,0,6.0676,6.0939,6.117,6.1236,6.1374,6.1482,6.1544,6.1649,6.1746,6.1876,6.1939,6.209,6.2173,6.2288,6.2309,6.2206,6.2577,6.2439,6.2599,6.2598,6.2683,6.2678,6.3131,6.2733,6.2733,6.2732,6.2731,0,6.1045,6.1249,6.129,6.1433,6.1657,6.1666,6.1888,6.1941,6.2034,6.2183,6.2146,6.2287,6.2304,6.2449,6.2465,6.2683,6.272,6.2742,6.2744,6.2747,6.2744,6.2803,6.2783,6.2744,6.2741,6.2739,6.2737,0,6.1381,6.1417,6.1665,6.1772,6.1804,6.1965,6.2056,6.219,6.2225,6.2414,6.2459,6.2515,6.2682,6.2713,6.291,6.292,6.318,6.3161,6.3143,6.3141,6.3298,6.3283,6.3807,6.3876,6.3432,6.3437,6.344,0,6.1616,6.1771,6.1894,6.1991,6.2058,6.2215,6.2313,6.2324,6.2427,6.2564,6.2681,6.2843,6.2975,6.3243,6.33,6.3449,6.3433,6.3606,6.3456,6.3451,6.3436,6.3427,6.3441,6.3636,6.3641,6.3645,6.3648,0,6.2028,6.2036,6.2179,6.2327,6.2443,6.2561,6.2671,6.2752,6.2777,6.2893,6.3063,6.3164,6.3363,6.3524,6.3671,6.3732,6.3695,6.3693,6.3738,6.3744,6.3727,6.3738,6.3223,6.3683,6.3679,6.3677,6.3675,6.3673,6.2321,6.2455,6.256,6.2719,6.2802,6.2904,6.3034,6.3084,6.3226,6.3389,6.3385,6.357,6.3673,6.3867,6.3936,6.4079,6.4024,6.409,6.4106,6.4123,6.4138,6.3702,6.4106,6.4105,6.4104,6.4103,6.4103,0,6.2731,6.2794,6.2939,6.3094,6.3217,6.3167,6.3285,6.3391,6.3555,6.3654,6.3782,6.3974,6.4128,6.4195,6.4345,6.4447,6.4433,6.4486,6.448,6.4494,6.4179,6.4125,6.4494,6.4494,6.4494,6.4494,6.4494,6.4494,6.2959,6.3181,6.32,6.3462,6.3523,6.3704,6.3775,6.3868,6.3947,6.4163,6.429,6.4331,6.4416,6.4572,6.4709,6.4724,6.4782,6.4843,6.4851,6.4556,6.4516,6.4479,6.4428,6.4855,6.4856,6.5154,6.5157,6.5159]}]]